Location: Raleigh
(35.7720°N, 78.6390°W)
Time: 10:07:39
(UTC-05:00)

Amateur Radio Satellites - All Passes

Search period start: 01 March 2015 09:37
Search period end: 02 March 2015 09:37
Location: Raleigh, 35.7720°N, 78.6390°W

Satellite Date Start Highest point End Downlink Frequencies (MHz)
Time Altitude Azimuth
ANTELSAT 01 Mar 09:46:28 09:50:42 46° 74° (ENE) 09:54:54 437.575/2403.000
QB50P1 01 Mar 09:48:40 09:52:11 26° 71° (ENE) 09:55:46 145.935-145.965
QB50P2 01 Mar 09:51:45 09:55:24 28° 72° (ENE) 09:59:08 145.880/145.840
DOVE 4 01 Mar 09:52:48 09:56:47 37° 287° (WNW) 10:00:36 437.250
FUNcube-1 01 Mar 09:54:43 09:58:33 36° 98° (E) 10:02:24 145.935
ZACube-1 01 Mar 09:55:19 09:59:10 37° 98° (E) 10:03:04 437.345
SEEDS 01 Mar 10:00:10 10:03:44 26° 288° (WNW) 10:07:14 437.485
CANX-2 01 Mar 10:01:04 10:04:14 20° 290° (WNW) 10:07:18 2200.000
UKube-1 01 Mar 10:06:26 10:10:36 46° 99° (E) 10:14:47 .
O/OREOS (USA 219) 01 Mar 10:07:11 10:11:33 45° 294° (WNW) 10:15:58 437.305
BUGSAT 1 01 Mar 10:07:31 10:11:16 31° 72° (ENE) 10:15:05 437.445
DUCHIFAT 1 01 Mar 10:07:55 10:11:57 42° 74° (ENE) 10:16:01 145.980
RS-15 01 Mar 10:08:42 10:19:43 51° 249° (WSW) 10:31:01 29.354- 29.394
UWE-3 01 Mar 10:10:29 10:14:38 75° 101° (E) 10:18:48 435.000/436.395/437.385
HUMSAT D 01 Mar 10:11:57 10:15:32 29° 96° (E) 10:19:11 437.325/437.525
CINEMA 3 01 Mar 10:13:03 10:17:01 42° 286° (WNW) 10:20:55 145.822/145.860
SO-50 01 Mar 10:17:43 10:21:41 24° 49° (NE) 10:25:44 436.795
CUTE 1.7 + AOD 2 01 Mar 10:20:44 10:23:00 14° 292° (WNW) 10:25:05 437.475
POLYITAN 1 01 Mar 10:25:54 10:30:11 74° 77° (ENE) 10:34:29 437.675
50 SAT 01 Mar 10:26:22 10:29:48 29° 96° (E) 10:33:18 437.505
POPSAT HIP 1 01 Mar 10:27:16 10:31:34 75° 77° (ENE) 10:35:52 437.405
HO-68 01 Mar 10:27:31 10:33:37 30° 295° (WNW) 10:39:32 435.675
UNISAT 6 01 Mar 10:44:43 10:48:51 36° 262° (W) 10:52:52 437.425
CUBEBUG 2 01 Mar 10:44:52 10:48:38 33° 287° (WNW) 10:52:21 437.445
Oscar 11 01 Mar 10:50:05 10:53:31 23° 289° (WNW) 10:56:50 145.826/435.025
NANOSAT C BR1 01 Mar 10:51:13 10:55:26 55° 260° (W) 10:59:39 145.865
DELFI C3 01 Mar 10:51:48 10:55:10 24° 288° (WNW) 10:58:27 145.870
ISS 01 Mar 10:56:23 10:58:00 13° 335° (NNW) 10:59:32 145.825
GONETS M04 01 Mar 11:01:29 11:08:30 27° 275° (W) 11:15:12
DANDE 01 Mar 11:01:48 11:03:41 17° 74° (ENE) 11:05:35 436.750
AISAT 01 Mar 11:06:25 11:10:53 85° 280° (W) 11:15:18 437.250
DX 1 01 Mar 11:11:10 11:14:58 29° 289° (WNW) 11:18:41 434.975-435.025
TIGRISAT 01 Mar 11:11:43 11:14:57 19° 266° (W) 11:17:59 435.000
CUBEBUG 1 01 Mar 11:15:43 11:19:59 48° 99° (E) 11:24:14 437.445
VELOX 1 01 Mar 11:16:46 11:21:12 67° 284° (WNW) 11:25:34 145.980
QB50P1 01 Mar 11:24:36 11:28:03 23° 266° (W) 11:31:24 145.935-145.965
ANTELSAT 01 Mar 11:25:36 11:27:48 13° 269° (W) 11:29:44 437.575/2403.000
ESTCUBE 1 01 Mar 11:26:05 11:30:39 72° 101° (E) 11:35:11 437.505/2401.250
QB50P2 01 Mar 11:28:04 11:31:21 20° 266° (W) 11:34:31 145.880/145.840
FUNcube-1 01 Mar 11:32:08 11:34:40 15° 291° (WNW) 11:37:01 145.935
ZACube-1 01 Mar 11:32:52 11:35:18 15° 291° (WNW) 11:37:34 437.345
CUSAT 1 01 Mar 11:40:21 11:42:53 48° 263° (W) 11:45:28 437.405
BUGSAT 1 01 Mar 11:43:45 11:46:50 19° 267° (W) 11:49:48 437.445
UKube-1 01 Mar 11:44:06 11:46:25 14° 293° (WNW) 11:48:33 .
DUCHIFAT 1 01 Mar 11:45:47 11:48:03 14° 269° (W) 11:50:07 145.980
HUMSAT D 01 Mar 11:48:16 11:51:11 18° 290° (WNW) 11:53:57 437.325/437.525
SPROUT 01 Mar 11:54:30 11:58:18 30° 96° (E) 12:02:07 437.525
SO-50 01 Mar 11:57:47 12:02:24 39° 246° (WSW) 12:06:56 436.795
50 SAT 01 Mar 12:02:00 12:04:39 17° 290° (WNW) 12:07:10 437.505
TISAT 1 01 Mar 12:04:04 12:07:56 35° 97° (E) 12:11:47 437.305
ITAMSAT 1 01 Mar 12:26:00 12:28:06 13° 64° (ENE) 12:30:30 435.822/435.867
Oscar 19 01 Mar 12:28:09 12:32:55 41° 72° (ENE) 12:37:45 437.125/150
SWISSCUBE 01 Mar 12:36:05 12:38:04 13° 90° (E) 12:40:19 437.505
BEESAT 01 Mar 12:44:32 12:47:04 15° 91° (E) 12:49:50 436.000
CUBEBUG 1 01 Mar 12:53:43 12:56:00 14° 293° (WNW) 12:58:04 437.445
ITUPSAT 1 01 Mar 13:09:43 13:13:47 27° 96° (E) 13:17:53 437.325
Gurwin Techsat 1B 01 Mar 13:25:51 13:30:38 36° 71° (ENE) 13:35:30 435.225
SPROUT 01 Mar 13:31:06 13:34:13 19° 290° (WNW) 13:37:13 437.525
TISAT 1 01 Mar 13:40:45 13:43:30 17° 291° (WNW) 13:46:05 437.305
ITAMSAT 1 01 Mar 14:01:52 14:07:03 72° 258° (WSW) 14:12:18 435.822/435.867
Oscar 19 01 Mar 14:08:41 14:12:29 20° 267° (W) 14:16:07 437.125/150
SWISSCUBE 01 Mar 14:11:38 14:16:22 56° 286° (WNW) 14:21:04 437.505
HORYU 2 01 Mar 14:17:35 14:21:20 28° 71° (ENE) 14:25:08 437.375
BEESAT 01 Mar 14:20:37 14:25:16 49° 287° (WNW) 14:29:52 436.000
AO-7 01 Mar 14:31:41 14:39:05 38° 64° (ENE) 14:46:36 29.400- 29.500
ITUPSAT 1 01 Mar 14:47:32 14:51:37 27° 290° (WNW) 14:55:36 437.325
KKS-1 01 Mar 14:55:19 14:59:46 74° 102° (ESE) 15:04:11 437.445
STARS 01 Mar 15:05:04 15:09:24 59° 100° (E) 15:13:44 437.465
Gurwin Techsat 1B 01 Mar 15:06:25 15:10:44 24° 266° (W) 15:14:55 435.225
JAS-2 01 Mar 15:19:10 15:23:59 35° 69° (ENE) 15:29:21 435.910
ISS 01 Mar 15:48:05 15:50:56 28° 34° (NE) 15:53:49 145.825
YUBILEINY 01 Mar 15:52:22 16:00:37 50° 90° (E) 16:09:00 435.215
HORYU 2 01 Mar 15:54:28 15:58:01 22° 265° (W) 16:01:26 437.375
MOZHAYETS 4 01 Mar 15:57:53 16:00:30 15° 91° (E) 16:03:20
M-CUBED/EXP-1 PRIME 01 Mar 16:05:14 16:08:50 26° 101° (E) 16:12:42 437.505
AUBIESAT-1 01 Mar 16:08:26 16:11:59 25° 101° (E) 16:15:49 437.475
BEESAT 3 01 Mar 16:19:14 16:20:40 12° 109° (ESE) 16:22:21 437.485
AO-7 01 Mar 16:23:52 16:31:46 45° 260° (W) 16:39:37 29.400- 29.500
BEESAT 2 01 Mar 16:41:42 16:44:35 19° 111° (ESE) 16:47:36 435.950
VERMONT LUNAR 01 Mar 16:43:48 16:46:17 18° 145° (SE) 16:48:49 437.305
STARS 01 Mar 16:44:03 16:45:27 11° 294° (WNW) 16:46:34 437.465
JAS-2 01 Mar 17:04:51 17:09:18 25° 268° (W) 17:13:57 435.910
Cubesat XI-IV 01 Mar 17:18:23 17:23:26 45° 72° (ENE) 17:28:34 437.490
ISS 01 Mar 17:24:37 17:27:17 23° 229° (SW) 17:29:56 145.825
CUTE-I 01 Mar 17:27:36 17:32:47 55° 73° (ENE) 17:38:03 437.470
MOZHAYETS 4 01 Mar 17:33:36 17:38:01 44° 286° (WNW) 17:42:24
PRISM 01 Mar 17:35:44 17:36:35 11° 90° (E) 17:37:43 437.425
M-CUBED/EXP-1 PRIME 01 Mar 17:40:06 17:43:41 26° 292° (WNW) 17:47:25 437.505
AUBIESAT-1 01 Mar 17:43:09 17:46:48 27° 292° (WNW) 17:50:35 437.475
YUBILEINY 01 Mar 17:50:10 17:57:47 32° 289° (WNW) 18:05:15 435.215
CUBESAT XI-V 01 Mar 17:52:33 17:55:53 20° 92° (E) 17:59:21 437.345
BEESAT 3 01 Mar 17:54:25 17:58:23 49° 303° (WNW) 18:02:25 437.485
AIST 2 01 Mar 18:08:26 18:12:38 69° 118° (ESE) 18:16:55 435.215
PHONESAT 2.4 01 Mar 18:15:04 18:18:34 45° 152° (SSE) 18:22:03 2401.200-2431.200
BEESAT 2 01 Mar 18:18:49 18:22:34 32° 306° (NW) 18:26:19 435.950
VERMONT LUNAR 01 Mar 18:20:27 18:23:56 86° 339° (NNW) 18:27:27 437.305
BRITE-PL 01 Mar 18:29:04 18:30:11 11° 65° (ENE) 18:31:42 437.365/2234.400
O/OREOS (USA 219) 01 Mar 18:41:38 18:44:48 18° 58° (ENE) 18:48:04 437.305
AIST 1 01 Mar 18:51:45 18:56:10 69° 265° (W) 19:00:30
Cubesat XI-IV 01 Mar 18:59:53 19:03:48 20° 268° (W) 19:07:33 437.490
STRAND 1 01 Mar 19:04:23 19:09:32 67° 102° (ESE) 19:14:38 437.568
HO-68 01 Mar 19:05:38 19:11:18 27° 64° (ENE) 19:17:11 435.675
PRISM 01 Mar 19:08:20 19:12:28 52° 286° (WNW) 19:16:34 437.425
CUTE-I 01 Mar 19:09:55 19:13:17 16° 269° (W) 19:16:25 437.470
CANX-2 01 Mar 19:16:22 19:18:45 15° 69° (ENE) 19:21:17 2200.000
SEEDS 01 Mar 19:16:27 19:17:34 11° 67° (ENE) 19:18:55 437.485
DOVE 4 01 Mar 19:19:22 19:22:04 15° 68° (ENE) 19:24:57 437.250
CUBESAT XI-V 01 Mar 19:29:09 19:33:29 36° 288° (WNW) 19:37:43 437.345
CUTE 1.7 + AOD 2 01 Mar 19:34:14 19:37:28 22° 71° (ENE) 19:40:46 437.475
CINEMA 3 01 Mar 19:38:09 19:39:11 11° 67° (ENE) 19:40:31 145.822/145.860
PCSat 01 Mar 19:40:39 19:44:04 18° 106° (ESE) 19:47:43 145.827
AIST 2 01 Mar 19:49:52 19:51:47 12° 315° (NW) 19:53:32 435.215
PHONESAT 2.4 01 Mar 19:53:29 19:57:02 50° 347° (NNW) 20:00:36 2401.200-2431.200
VERMONT LUNAR 01 Mar 19:58:49 20:02:06 37° 355° (N) 20:05:23 437.305
BRITE-PL 01 Mar 20:02:23 20:08:05 86° 80° (E) 20:13:38 437.365/2234.400
CUBEBUG 2 01 Mar 20:06:32 20:07:51 11° 67° (ENE) 20:09:24 437.445
Oscar 11 01 Mar 20:07:06 20:09:30 15° 69° (ENE) 20:12:06 145.826/435.025
GONETS M04 01 Mar 20:12:31 20:13:33 10° 79° (ENE) 20:15:28
GOMX 1 01 Mar 20:13:35 20:19:01 77° 78° (ENE) 20:24:16 467.674
O/OREOS (USA 219) 01 Mar 20:20:08 20:24:24 38° 255° (WSW) 20:28:36 437.305
AAUSAT CUBESAT 2 01 Mar 20:21:43 20:25:40 47° 75° (ENE) 20:29:41 437.432
COMPASS 1 01 Mar 20:23:15 20:27:19 58° 76° (ENE) 20:31:24 437.405
DX 1 01 Mar 20:29:35 20:31:44 14° 67° (ENE) 20:34:06 434.975-435.025
STRAND 1 01 Mar 20:45:41 20:48:13 13° 296° (WNW) 20:50:29 437.568
FUNcube-1 01 Mar 20:48:24 20:51:43 22° 71° (ENE) 20:55:06 145.935
SEEDS 01 Mar 20:48:54 20:52:59 53° 261° (W) 20:57:06 437.485
ZACube-1 01 Mar 20:49:08 20:52:31 23° 71° (ENE) 20:55:58 437.345
CANX-2 01 Mar 20:50:28 20:54:26 38° 263° (W) 20:58:21 2200.000
HO-68 01 Mar 20:51:45 20:58:42 52° 260° (W) 21:05:39 435.675
DOVE 4 01 Mar 20:54:18 20:59:29 59° 260° (W) 21:04:25 437.250
UKube-1 01 Mar 20:58:58 21:02:39 28° 71° (ENE) 21:06:24 .
HUMSAT D 01 Mar 21:02:26 21:04:54 16° 69° (ENE) 21:07:31 437.325/437.525
UWE-3 01 Mar 21:04:48 21:09:02 43° 74° (ENE) 21:13:12 435.000/436.395/437.385
CUTE 1.7 + AOD 2 01 Mar 21:09:46 21:13:18 25° 265° (W) 21:16:46 437.475
CINEMA 3 01 Mar 21:11:07 21:15:58 71° 258° (WSW) 21:20:38 145.822/145.860
50 SAT 01 Mar 21:12:03 21:13:51 13° 69° (ENE) 21:15:51 437.505
PCSat 01 Mar 21:21:50 21:27:07 53° 300° (WNW) 21:32:25 145.827
PHONESAT 2.4 01 Mar 21:32:27 21:35:53 38° 4° (N) 21:39:19 2401.200-2431.200
DELFI C3 01 Mar 21:36:15 21:40:13 57° 260° (W) 21:44:12 145.870
VERMONT LUNAR 01 Mar 21:37:01 21:40:25 46° 12° (NNE) 21:43:46 437.305
CUBEBUG 2 01 Mar 21:39:38 21:44:10 60° 260° (W) 21:48:34 437.445
Oscar 11 01 Mar 21:41:21 21:45:24 40° 262° (W) 21:49:28 145.826/435.025
ANTELSAT 01 Mar 21:43:35 21:44:53 11° 90° (E) 21:46:26 437.575/2403.000
BRITE-PL 01 Mar 21:45:57 21:47:16 10° 273° (W) 21:48:06 437.365/2234.400
GOMX 1 01 Mar 21:55:51 21:57:41 11° 272° (W) 21:59:06 467.674
AAUSAT CUBESAT 2 01 Mar 22:00:18 22:01:41 11° 270° (W) 22:02:48 437.432
GONETS M04 01 Mar 22:00:32 22:09:09 74° 94° (E) 22:17:49
AISAT 01 Mar 22:01:22 22:05:47 60° 75° (ENE) 22:10:14 437.250
DX 1 01 Mar 22:03:24 22:07:38 47° 261° (W) 22:11:54 434.975-435.025
CUBEBUG 1 01 Mar 22:09:24 22:13:12 29° 71° (ENE) 22:17:04 437.445
VELOX 1 01 Mar 22:11:22 22:15:50 76° 77° (ENE) 22:20:20 145.980
POLYITAN 1 01 Mar 22:16:00 22:18:20 15° 92° (E) 22:20:50 437.675
POPSAT HIP 1 01 Mar 22:17:04 22:19:25 15° 92° (E) 22:21:57 437.405
RS-15 01 Mar 22:17:38 22:26:54 35° 108° (ESE) 22:36:29 29.354- 29.394
ESTCUBE 1 01 Mar 22:22:59 22:27:17 46° 74° (ENE) 22:31:38 437.505/2401.250
FUNcube-1 01 Mar 22:24:08 22:27:58 28° 264° (W) 22:31:39 145.935
ZACube-1 01 Mar 22:25:03 22:28:49 27° 264° (W) 22:32:29 437.345
UKube-1 01 Mar 22:35:24 22:38:49 22° 265° (W) 22:42:08 .
HUMSAT D 01 Mar 22:36:31 22:40:26 36° 262° (W) 22:44:18 437.325/437.525
UNISAT 6 01 Mar 22:39:10 22:43:23 55° 100° (E) 22:47:40 437.425
NANOSAT C BR1 01 Mar 22:39:40 22:43:17 28° 96° (E) 22:46:57 145.865
UWE-3 01 Mar 22:43:15 22:45:49 14° 268° (W) 22:48:08 435.000/436.395/437.385
50 SAT 01 Mar 22:44:48 22:48:34 39° 262° (W) 22:52:19 437.505
SPROUT 01 Mar 22:46:52 22:49:43 18° 69° (ENE) 22:52:43 437.525
TISAT 1 01 Mar 22:54:24 22:57:26 20° 70° (ENE) 23:00:35 437.305
CUSAT 1 01 Mar 23:02:49 23:07:29 21° 95° (E) 23:11:36 437.405
TIGRISAT 01 Mar 23:04:46 23:09:02 75° 284° (WNW) 23:13:21 435.000
PHONESAT 2.4 01 Mar 23:10:58 23:14:37 82° 20° (NNE) 23:18:13 2401.200-2431.200
QB50P1 01 Mar 23:11:46 23:16:00 72° 102° (ESE) 23:20:12 145.935-145.965
VERMONT LUNAR 01 Mar 23:15:00 23:18:22 48° 208° (SSW) 23:21:42 437.305
QB50P2 01 Mar 23:15:13 23:19:29 81° 104° (ESE) 23:23:41 145.880/145.840
ANTELSAT 01 Mar 23:17:52 23:22:02 50° 285° (WNW) 23:26:14 437.575/2403.000
BUGSAT 1 01 Mar 23:27:45 23:31:56 81° 102° (ESE) 23:36:01 437.445
DUCHIFAT 1 01 Mar 23:31:19 23:35:30 66° 285° (WNW) 23:39:39 145.980
SWISSCUBE 01 Mar 23:41:12 23:42:37 11° 65° (ENE) 23:44:19 437.505
AISAT 01 Mar 23:41:51 23:42:52 10° 271° (W) 23:43:34 437.250
CUBEBUG 1 01 Mar 23:46:06 23:49:36 22° 266° (W) 23:52:59 437.445
BEESAT 01 Mar 23:49:21 23:51:24 13° 66° (ENE) 23:53:42 436.000
POLYITAN 1 01 Mar 23:50:33 23:54:28 37° 287° (WNW) 23:58:20 437.675
POPSAT HIP 1 01 Mar 23:51:36 23:55:31 37° 287° (WNW) 23:59:23 437.405
GONETS M04 02 Mar 00:00:38 00:07:00 21° 294° (WNW) 00:12:56
ESTCUBE 1 02 Mar 00:01:58 00:04:28 14° 269° (W) 00:06:44 437.505/2401.250
DANDE 02 Mar 00:07:16 00:14:36 69° 98° (E) 00:20:11 436.750
ITUPSAT 1 02 Mar 00:14:14 00:17:57 24° 69° (ENE) 00:21:48 437.325
NANOSAT C BR1 02 Mar 00:15:52 00:19:01 20° 290° (WNW) 00:22:04 145.865
UNISAT 6 02 Mar 00:18:16 00:19:49 11° 293° (WNW) 00:21:06 437.425
SPROUT 02 Mar 00:21:36 00:25:35 34° 263° (W) 00:29:33 437.525
RS-15 02 Mar 00:28:04 00:38:48 59° 307° (NW) 00:49:37 29.354- 29.394
TISAT 1 02 Mar 00:29:16 00:33:05 30° 263° (W) 00:36:52 437.305
SO-50 02 Mar 00:31:56 00:33:40 12° 108° (ESE) 00:35:41 436.795
Oscar 19 02 Mar 00:43:30 00:46:53 18° 92° (E) 00:50:28 437.125/150
CUSAT 1 02 Mar 00:43:52 00:50:21 47° 280° (W) 00:55:18 437.405
PHONESAT 2.4 02 Mar 00:50:03 00:52:49 20° 215° (SW) 00:55:32 2401.200-2431.200
SWISSCUBE 02 Mar 01:15:14 01:19:58 69° 259° (WSW) 01:24:46 437.505
BEESAT 02 Mar 01:24:07 01:28:48 60° 259° (W) 01:33:33 436.000
Gurwin Techsat 1B 02 Mar 01:45:46 01:49:16 18° 92° (E) 01:52:57 435.225
KKS-1 02 Mar 01:50:40 01:54:57 46° 74° (ENE) 01:59:16 437.445
ITUPSAT 1 02 Mar 01:51:28 01:55:43 31° 264° (W) 01:59:57 437.325
DANDE 02 Mar 01:53:52 01:58:03 16° 287° (WNW) 02:01:23 436.750
STARS 02 Mar 01:59:25 02:03:28 36° 72° (ENE) 02:07:33 437.465
YUBILEINY 02 Mar 02:07:07 02:13:12 21° 66° (ENE) 02:19:41 435.215
SO-50 02 Mar 02:09:13 02:13:43 60° 302° (WNW) 02:18:25 436.795
BEESAT 3 02 Mar 02:16:21 02:20:13 38° 55° (NE) 02:24:03 437.485
ITAMSAT 1 02 Mar 02:17:46 02:22:51 52° 100° (E) 02:27:55 435.822/435.867
Oscar 19 02 Mar 02:21:38 02:26:31 45° 288° (WNW) 02:31:21 437.125/150
AIST 2 02 Mar 02:33:44 02:36:55 20° 50° (NE) 02:40:09 435.215
AO-7 02 Mar 02:40:00 02:42:03 11° 87° (E) 02:44:56 29.400- 29.500
BEESAT 2 02 Mar 02:40:41 02:44:49 62° 59° (ENE) 02:48:52 435.950
RS-15 02 Mar 02:47:13 02:54:25 18° 336° (NNW) 03:01:22 29.354- 29.394
JUGNU 02 Mar 02:53:03 02:56:15 15° 173° (S) 02:59:31 437.505
M-CUBED/EXP-1 PRIME 02 Mar 02:53:28 02:55:31 16° 65° (ENE) 02:57:41 437.505
AUBIESAT-1 02 Mar 02:56:17 02:58:13 15° 65° (ENE) 03:00:17 437.475
MOZHAYETS 4 02 Mar 02:59:13 03:00:10 11° 66° (ENE) 03:01:25
Gurwin Techsat 1B 02 Mar 03:24:26 03:29:33 48° 288° (WNW) 03:34:37 435.225
KKS-1 02 Mar 03:29:32 03:31:54 14° 269° (W) 03:34:03 437.445
STARS 02 Mar 03:37:07 03:40:06 17° 267° (W) 03:42:55 437.465
HORYU 2 02 Mar 03:47:31 03:51:59 86° 102° (ESE) 03:56:27 437.375
BEESAT 3 02 Mar 03:55:29 03:58:01 16° 250° (WSW) 04:00:22 437.485
ITAMSAT 1 02 Mar 03:58:32 04:01:59 18° 294° (WNW) 04:05:14 435.822/435.867
YUBILEINY 02 Mar 04:02:13 04:11:03 75° 266° (W) 04:19:49 435.215
AIST 2 02 Mar 04:11:46 04:15:38 34° 246° (WSW) 04:19:24 435.215
JAS-2 02 Mar 04:13:57 04:21:14 51° 98° (E) 04:28:51 435.910
M-CUBED/EXP-1 PRIME 02 Mar 04:27:47 04:30:23 21° 260° (W) 04:32:58 437.505
AO-7 02 Mar 04:28:01 04:36:20 77° 105° (ESE) 04:44:37 29.400- 29.500
AUBIESAT-1 02 Mar 04:30:20 04:33:00 22° 260° (W) 04:35:40 437.475
MOZHAYETS 4 02 Mar 04:32:23 04:36:55 66° 259° (W) 04:41:28
JUGNU 02 Mar 04:40:54 04:44:33 17° 183° (S) 04:48:11 437.505
SRMSAT 02 Mar 04:41:17 04:44:41 16° 174° (S) 04:48:08 437.500
CUBESAT XI-V 02 Mar 04:54:18 04:56:45 15° 67° (ENE) 04:59:25 437.345
RS-15 02 Mar 05:08:09 05:13:16 14° 12° (NNE) 05:18:46 29.354- 29.394
Cubesat XI-IV 02 Mar 05:39:16 05:43:22 23° 94° (E) 05:47:36 437.490
CUTE-I 02 Mar 05:48:11 05:52:40 27° 95° (E) 05:57:13 437.470
PRISM 02 Mar 05:55:39 05:59:46 76° 76° (ENE) 06:03:57 437.425
JAS-2 02 Mar 05:59:32 06:06:00 32° 292° (WNW) 06:12:34 435.910
YUBILEINY 02 Mar 06:04:00 06:06:37 11° 282° (WNW) 06:08:22 435.215
PCSat 02 Mar 06:12:26 06:17:50 66° 61° (ENE) 06:23:13 145.827
STRAND 1 02 Mar 06:17:18 06:22:24 72° 76° (ENE) 06:27:34 437.568
AO-7 02 Mar 06:22:18 06:28:25 22° 302° (WNW) 06:34:10 29.400- 29.500
CUBESAT XI-V 02 Mar 06:29:16 06:33:49 51° 261° (W) 06:38:24 437.345
SRMSAT 02 Mar 06:29:32 06:33:09 16° 184° (S) 06:36:44 437.500
JUGNU 02 Mar 06:30:47 06:32:51 12° 192° (SSW) 06:34:48 437.505
AIST 1 02 Mar 07:17:59 07:22:19 81° 96° (E) 07:26:43
Cubesat XI-IV 02 Mar 07:18:38 07:23:37 39° 289° (WNW) 07:28:32 437.490
RS-15 02 Mar 07:20:22 07:30:33 37° 44° (NE) 07:41:20 29.354- 29.394
CUTE-I 02 Mar 07:28:00 07:32:46 33° 290° (WNW) 07:37:26 437.470
PCSat 02 Mar 07:57:58 08:00:46 14° 255° (WSW) 08:03:15 145.827
STRAND 1 02 Mar 08:00:41 08:02:15 11° 271° (W) 08:03:25 437.568
BRITE-PL 02 Mar 08:11:44 08:15:42 31° 95° (E) 08:19:30 437.365/2234.400
COMPASS 1 02 Mar 08:11:57 08:13:23 12° 90° (E) 08:15:05 437.405
GONETS M04 02 Mar 08:14:54 08:22:19 31° 71° (ENE) 08:29:59
GOMX 1 02 Mar 08:19:57 08:23:26 24° 94° (E) 08:26:52 467.674
SRMSAT 02 Mar 08:20:08 08:21:35 11° 193° (SSW) 08:22:56 437.500
HO-68 02 Mar 08:22:39 08:29:06 36° 97° (E) 08:35:39 435.675
ISS 02 Mar 08:25:13 08:28:14 37° 133° (SE) 08:31:16 145.825
SEEDS 02 Mar 08:36:31 08:40:13 30° 96° (E) 08:43:58 437.485
CANX-2 02 Mar 08:38:31 08:42:33 42° 98° (E) 08:46:37 2200.000
O/OREOS (USA 219) 02 Mar 08:50:17 08:54:20 33° 105° (ESE) 08:58:29 437.305
CUTE 1.7 + AOD 2 02 Mar 08:57:04 09:01:18 65° 101° (E) 09:05:32 437.475
DOVE 4 02 Mar 08:57:09 09:01:13 43° 98° (E) 09:05:11 437.250
CINEMA 3 02 Mar 09:09:42 09:13:22 30° 96° (E) 09:17:04 145.822/145.860
DELFI C3 02 Mar 09:19:37 09:22:53 23° 95° (E) 09:26:12 145.870
NANOSAT C BR1 02 Mar 09:30:43 09:33:16 16° 69° (ENE) 09:35:58 145.865
